Regional Weather Roundup
Issued by NWS

Home | Current Version | Previous Version | Text Only | Print | Product List | Glossary On
Versions: 1 2 3 4 5 6 7 8 9 10 11 12 13 14 15 16 17 18 19 20 21 22 23 24 25 26 27 28 29 30 31 32 33 34 35 36 37 38 39 40 41 42 43 44 45 46 47 48 49 50
000
ASHW40 PHFO 300510
RWRHI

WEATHER ROUNDUP FOR HAWAII
NATIONAL WEATHER SERVICE HONOLULU HI
700 PM HST FRI MAY 29 2015

THIS IS AN AUTOMATED REPORT THAT HAS NOT BEEN QUALITY CONTROLLED.

NOTE..."FAIR" INDICATES FEW OR NO CLOUDS BELOW 12,000 FEET WITH NO
SIGNIFICANT WEATHER AND/OR OBSTRUCTIONS TO VISIBILITY.

* - THESE SITES REPORT LIMITED FIELDS

HIZ001>004-300600-
KAUAI-NIIHAU-

CITY           SKY/WX    TMP DP  RH WIND       PRES   REMARKS
LIHUE APT      PTCLDY    75  63  66 N12       29.99R
PORT ALLEN*    NOT AVBL
POIPU*           N/A     77 N/A N/A N6G15       N/A
PRINCEVILLE*     N/A     75 N/A N/A MISG        N/A
KOKOLE POINT*  NOT AVBL
MOLOAA DAIRY*  NOT AVBL
WAIMEA HTS*    NOT AVBL
PUU OPAE*      NOT AVBL
PUU LUA*       NOT AVBL
MAKAHA RIDGE*  NOT AVBL
$$

HIZ005>011-300600-
OAHU-

CITY           SKY/WX    TMP DP  RH WIND       PRES   REMARKS
HONOLULU       PTCLDY    78  63  59 NE7       29.95R
KALAELOA       CLEAR     77  62  59 VRB3      29.97R
KANEOHE MCB    PTCLDY    76  66  71 NE8       29.95R
WHEELER FIELD  FAIR      73  63  68 N6        29.97R
BELLOWS*       NOT AVBL
KAHUKU*        NOT AVBL
WHEELER*       NOT AVBL
WAIANAE HARBOR NOT AVBL
DILLINGHAM*      N/A     75  63  64 MISG        N/A
KAHUKU TRN*      N/A     73  64  73 E6G12       N/A
KAWAILOA*        N/A     70  63  78 NE9G18      N/A
KII*             N/A     75  66  73 NE8         N/A
MAKUA RANGE*     N/A     75  63  64 E12G20      N/A
OAHU FOREST NW NOT AVBL
SCHOFIELD BRK*   N/A     72  63  73 CALM        N/A
SCHOFIELD S*   NOT AVBL
WAIANAE VLY*   NOT AVBL
KUAOKALA*      NOT AVBL
HONOULIUULI*   NOT AVBL
MOKUOLOE IS*     N/A    N/A N/A N/A MISG        N/A
PALEHUA*       NOT AVBL
WAIAWA PHB*    NOT AVBL
$$

HIZ012>013-300600-
MOLOKAI-

CITY           SKY/WX    TMP DP  RH WIND       PRES   REMARKS
MOLOKAI AIRPT  PTCLDY    74  66  76 N9        29.98R
KALAUPAPA      NOT AVBL
MAKAPULAPAI*   NOT AVBL
MOLOKAI 1*     NOT AVBL
PUU ALII*      NOT AVBL
$$

HIZ016-300600-
KAHOOLAWE-

CITY           SKY/WX    TMP DP  RH WIND       PRES   REMARKS
KAHOOLAWE*     NOT AVBL
HAKIOAWA*      NOT AVBL
HONOKANAIA*      N/A     79  65  62 VRB12G24  29.97R
KANELOA*         N/A     75  66  73 N16G25    30.01S
KEALIALALO*    NOT AVBL
LUA MAKIKA*    NOT AVBL
$$

HIZ014>015-300600-
LANAI-

CITY           SKY/WX    TMP DP  RH WIND       PRES   REMARKS
LANAI CITY     FAIR      70  64  81 NE16      30.01R
LANAI 1*       NOT AVBL
$$

HIZ017>028-300600-
MAUI-

CITY           SKY/WX    TMP DP  RH WIND       PRES   REMARKS
KAHULUI        PTCLDY    77  67  71 NE13      29.98R
KAPALUA-W MAUI NOT AVBL
HANA AIRPORT   LGT RAIN  70  68  94 SW8       30.01S
HANA*          NOT AVBL
HALEAKALA SUMM   N/A     52  23  32 S6          N/A
MAALAEA BAY*   NOT AVBL
HALEAKALA*     NOT AVBL
KAUPO GAP*     NOT AVBL
KULA 1*          N/A     54  54 100 NW3G10      N/A
$$

HIZ023>026-300600-
BIG ISLAND OF HAWAII COAST AND LOWER SLOPES-

CITY           SKY/WX    TMP DP  RH WIND       PRES   REMARKS
KAILUA KONA    PTCLDY    81  69  67 NW10      29.92R
HILO           CLOUDY    75  69  81 NW7       29.97R
HONOKAA*       NOT AVBL
KAWAIHAE MWT*  NOT AVBL
KAWAIHAE*        N/A     82 N/A N/A SW8         N/A
SOUTH POINT*   NOT AVBL
UPOLU AIRPORT* NOT AVBL
KAMUELA*       MOCLDY    66  63  88 NE13      30.07R
HAKALAU*         N/A     55  55 100 NE3         N/A
KALOKO-HONOKO* NOT AVBL
PALI 2*          N/A     66  63  88 N8          N/A
KEALAKOMO*       N/A    N/A N/A N/A N14G23      N/A
KAUPULEHU*     NOT AVBL
KAPAPALA*        N/A     70  67  89 W3          N/A
LOWER KAHUKU*  NOT AVBL
PUHE CS*       NOT AVBL
PUHO CS*       NOT AVBL
PTA KEAMUKU*     N/A     64  59  82 CALM        N/A
WAIKOLOA*      NOT AVBL
$$

HIZ027>028-300600-
BIG ISLAND OF HAWAII INTERIOR AND SUMMMITS-

CITY           SKY/WX    TMP DP  RH WIND       PRES   REMARKS
BRADSHAW FIELD CLEAR     58  53  81 W3        30.27R
MK VISITOR CEN NOT AVBL
MAUNA KEA*       N/A     36   5  27 NW48        N/A  WCI  20
MAUNA LOA*       N/A     52  -6   9 MISG        N/A
MAUNA LOA 1*   NOT AVBL
PTA KIPUKA*      N/A     63  54  72 N3G10       N/A
PTA RANGE 17*    N/A     64  55  72 W5G14       N/A
PTA WEST*        N/A     73  64  73 NW6G13      N/A
NENE CABIN*    NOT AVBL
AHUMOA*        NOT AVBL
PTA PORTABLE*  NOT AVBL
PUU MALI*        N/A     54  54 100 E3          N/A
$$

HIC003-300600-
NORTHWEST ISLANDS-

CITY           SKY/WX    TMP DP  RH WIND       PRES   REMARKS
MIDWAY ISLAND  CLOUDY   N/A N/A N/A NE14G22   30.18S
MIDWAY NOS*    NOT AVBL
FRENCH FRIGATE NOT AVBL
$$

PHZ110>124-180-300600-
BUOY REPORTS

STATION/POSITION TIME  TEMP    WIND        PRES    WAVE   SWELL
                       AIR SEA DIR/SP/G            HT/PER HT/DIR
                 (UTC) (F)     (DEG/KT/KT) (MB)    (FT/S) (FT/D)
BUOY 51001       NOT AVBL
BUOY 51101       0500   74 75   60/ 16/ 17 1016.4R   4/ 9   3/ 20
BUOY 51100       NOT AVBL
BUOY 51002       0500   79 81   70/ 10/ 12 1013.8R   3/13   3/130
BUOY 51003       0400   78 80   70/  6/  6 1013.8R   4/15   3
BUOY 51004       0438   79 81   80/  6/  6 1013.9R   5/ 8   5/ 50
BARBERS PT BUOY  NOT AVBL
WAIMEA BAY BUOY  0500      77                N/A     4/ 8   2/ 10
KAILUA BAY BUOY  0500      77                N/A     3/ 9   2/ 20
LANAI BUOY       NOT AVBL
BARBERS PT 2     0400      78                N/A     3/15   2/200
PAUWELA MAUI     0500      77                N/A     4/11   2/ 10
HILO             0400      78                N/A     4/ 8   2/ 10
KANEOHE BAY BUOY 0500      78                N/A     4/10   2/ 30
HANALEI KAUAI    0500      78                N/A     4/ 9   2/ 10
KAHULUI HARBOR   0500   76 80   40/ 10/ 12 1014.7R
HONOLULU HARBOR  0500   77 77   60/  8/ 13 1014.3R
KILO NALU        NOT AVBL
HILO HARBOR      0500   74 77  310/ 10/ 13 1014.5R
MOKUOLOE         0500      79              1014.9S
NAWILIWILI       0500   75 79   40/  8/ 10 1015.2R
WHOTS BUOY       NOT AVBL
BUOY 51028       NOT AVBL
$$

......................KEY........................................
  SKY/WX - SKY CONDITIONS/PRESENT WEATHER
  TMP    - TEMPERATURE IN FAHRENHEIT
  DWPT   - DEWPOINT IN FAHRENHEIT
  RH     - RELATIVE HUMIDITY IN PERCENT
  WIND   - DIRECTION AND SPEED /MPH FOR ISLANDS...KTS FOR BUOYS/
  PRES   - MEAN SEA LEVEL PRESSURE IN INCHES OF HG
  VSB    - VISIBILITY IN MILES
  HX     - HEAT INDEX
  WCI    - WIND CHILL INDEX
  VRB    - VARIABLE WIND DIRECTION
  N/A    - NOT AVAILABLE


USA.gov is the U.S. government's official web portal to all federal, state and local government web resources and services.